Location: Ago
(8.4667°N, 4.4833°E)
Time: 23:21:39
(UTC+00:00)

NATO 3D Rocket - Pass Details

Date: 18 September 2020
Orbit: 670 x 2296 km, 21.5° (Epoch: 20 October)

Event Time Altitude Azimuth Distance (km) Brightness Sun altitude
Rises 18:32:48 0° 238° (WSW) 3,491 7.9 -13.8°
Reaches altitude 10° 18:35:41 10° 232° (SW) 2,375 6.8 -14.5°
Maximum altitude 18:40:50 48° 159° (SSE) 911 3.7 -15.8°
Enters shadow 18:42:58 28° 100° (E) 1,253 4.0 -16.3°
